"Pseudo-MPEC" for P10Mi1o

Created 2019 Feb 19 10:18:06 UT using Find_Orb

Click here for an explanation of pseudo-MPECs

 
 Astrometry: 
     P10Mi1o  C2019 02 09'4NAstrometryITrtP:nkv=#/Bredacted;v,GGy(m5!`x`h2hk@F51
     P10Mi1o  C2019 02 09afJUclickZh0+W6_fY[M\Lb*b=jhere:#2F$G-Dq$:4Et%_`^@gWF51
     P10Mi1o  C2019 02 09:ZaVwfor+pUvUvCb@oXx/Nf.km=)explanationh*!ED[`3kJBcGF51

Station data:
(F51) Pan-STARRS 1, Haleakala  (N20.707235 W156.255910)  US/Hawaii.
   Observers N. Primak, A. Schultz, S. Watters, J. Thiel, T. Goggia. Measurer
   PS1 Science Consortium. 1.8-m Ritchey-Chrétien + CCD.

Orbital elements:  P10Mi1o
   Perihelion 2019 Jan 24.952342 +/- 32.9 TT = 22:51:22 (JD 2458508.452342)
Epoch 2019 Feb  9.0 TT = JDT 2458523.5   Earth MOID: 0.0235   Ma: 0.0988
M  11.98683532 +/- 21               (J2000 ecliptic)          AutoNEOCP
n   0.79659142 +/- 0.408            Peri.  359.67134 +/- 70
a   1.15251246 +/- 0.393            Node   123.88440 +/- 56
e   0.1254235 +/- 0.247             Incl.    3.36497 +/- 10
P   1.24/451.92d           H 27.1   G  0.15   U 12.1  SR
q 1.00796026 +/- 0.208    Q 1.29706466 +/- 40.3
From 3 observations 2019 Feb. 9 (38.9 min); mean residual 0".18
Residuals in arcseconds: 
190209 F51  .10+  .15+    190209 F51  .20-  .31-    190209 F51  .10+  .15+    

Ephemerides (geocentric):
Date (UTC) HH   RA              Dec         delta   r     elong  mag " sig PA
---- -- -- --  -------------   -----------  ------ ------ -----  --- ---- ---
2019 02 19 10  10 05 27.260   +53 44 13.39  .04151 1.0195 137.7 21.9  37d  45
2019 02 19 11  10 05 47.362   +53 44 08.96  .04155 1.0196 137.6 21.9  37d  45
2019 02 19 12  10 06 07.420   +53 44 04.19  .04160 1.0196 137.6 21.9  37d  45
2019 02 19 13  10 06 27.433   +53 43 59.08  .04165 1.0196 137.6 21.9  37d  45
2019 02 19 14  10 06 47.401   +53 43 53.62  .04169 1.0197 137.6 21.9  37d  45
2019 02 19 15  10 07 07.325   +53 43 47.82  .04174 1.0197 137.6 21.9  37d  45
2019 02 19 16  10 07 27.204   +53 43 41.69  .04178 1.0197 137.6 21.9  37d  45
2019 02 19 17  10 07 47.038   +53 43 35.21  .04183 1.0198 137.6 21.9  37d  45
2019 02 19 18  10 08 06.828   +53 43 28.41  .04187 1.0198 137.6 21.9  37d  45
2019 02 19 19  10 08 26.572   +53 43 21.27  .04192 1.0199 137.5 21.9  37d  45
2019 02 19 20  10 08 46.272   +53 43 13.79  .04196 1.0199 137.5 21.9  37d  45
2019 02 19 21  10 09 05.928   +53 43 05.99  .04201 1.0199 137.5 21.9  38d  45
2019 02 19 22  10 09 25.538   +53 42 57.86  .04206 1.0200 137.5 21.9  38d  45
2019 02 19 23  10 09 45.104   +53 42 49.40  .04210 1.0200 137.5 21.9  38d  45
2019 02 20 00  10 10 04.625   +53 42 40.61  .04215 1.0200 137.5 21.9  38d  45
2019 02 20 01  10 10 24.101   +53 42 31.51  .04219 1.0201 137.5 21.9  38d  45
2019 02 20 02  10 10 43.533   +53 42 22.08  .04224 1.0201 137.5 21.9  38d  45
2019 02 20 03  10 11 02.919   +53 42 12.33  .04229 1.0202 137.4 21.9  38d  45
2019 02 20 04  10 11 22.261   +53 42 02.26  .04233 1.0202 137.4 21.9  38d  45
2019 02 20 05  10 11 41.558   +53 41 51.87  .04238 1.0202 137.4 21.9  38d  45
2019 02 20 06  10 12 00.810   +53 41 41.17  .04242 1.0203 137.4 21.9  38d  45
2019 02 20 07  10 12 20.017   +53 41 30.15  .04247 1.0203 137.4 21.9  38d  45
2019 02 20 08  10 12 39.180   +53 41 18.82  .04252 1.0204 137.4 21.9  38d  45
2019 02 20 09  10 12 58.298   +53 41 07.18  .04256 1.0204 137.4 21.9  38d  45
2019 02 20 10  10 13 17.370   +53 40 55.23  .04261 1.0204 137.4 21.9  38d  45
2019 02 20 11  10 13 36.399   +53 40 42.98  .04265 1.0205 137.3 21.9  38d  45
2019 02 20 12  10 13 55.382   +53 40 30.41  .04270 1.0205 137.3 21.9  38d  45
2019 02 20 13  10 14 14.320   +53 40 17.54  .04275 1.0205 137.3 22.0  38d  45
2019 02 20 14  10 14 33.214   +53 40 04.37  .04279 1.0206 137.3 22.0  38d  45
2019 02 20 15  10 14 52.063   +53 39 50.90  .04284 1.0206 137.3 22.0  38d  45
2019 02 20 16  10 15 10.867   +53 39 37.13  .04289 1.0207 137.3 22.0  38d  45
2019 02 20 17  10 15 29.626   +53 39 23.05  .04293 1.0207 137.3 22.0  38d  45
2019 02 20 18  10 15 48.341   +53 39 08.68  .04298 1.0207 137.3 22.0  38d  45
2019 02 20 19  10 16 07.010   +53 38 54.02  .04303 1.0208 137.3 22.0  38d  45
2019 02 20 20  10 16 25.635   +53 38 39.06  .04307 1.0208 137.2 22.0  38d  45
2019 02 20 21  10 16 44.216   +53 38 23.81  .04312 1.0209 137.2 22.0  38d  45
2019 02 20 22  10 17 02.751   +53 38 08.26  .04317 1.0209 137.2 22.0  38d  45
2019 02 20 23  10 17 21.242   +53 37 52.43  .04321 1.0209 137.2 22.0  38d  45
2019 02 21 00  10 17 39.688   +53 37 36.31  .04326 1.0210 137.2 22.0  38d  45
2019 02 21 01  10 17 58.090   +53 37 19.90  .04331 1.0210 137.2 22.0  38d  45
2019 02 21 02  10 18 16.447   +53 37 03.21  .04335 1.0210 137.2 22.0  38d  45
2019 02 21 03  10 18 34.759   +53 36 46.23  .04340 1.0211 137.2 22.0  38d  45
2019 02 21 04  10 18 53.027   +53 36 28.97  .04345 1.0211 137.2 22.0  38d  45
2019 02 21 05  10 19 11.250   +53 36 11.43  .04349 1.0212 137.2 22.0  39d  45
2019 02 21 06  10 19 29.428   +53 35 53.61  .04354 1.0212 137.1 22.0  39d  45
2019 02 21 07  10 19 47.562   +53 35 35.51  .04359 1.0212 137.1 22.0  39d  45
2019 02 21 08  10 20 05.652   +53 35 17.14  .04364 1.0213 137.1 22.0  39d  45
2019 02 21 09  10 20 23.697   +53 34 58.48  .04368 1.0213 137.1 22.0  39d  45